{"data":{"norad_id":64882,"intl_designator":"2025-155G","name":"2025-155G","alt_names":[],"object_type":"PAYLOAD","status":"ACTIVE","operator":null,"country":"TBD","launch_date":"2025-07-25","launch_site_code":"VOSTO","launch_vehicle":null,"mission":null,"orbit_class":"UNKNOWN","rcs_meters":null,"size_class":null,"mass_kg":null,"dimensions":null,"purposes":[],"wikipedia_slug":null,"has_3d_model":false,"image_url":null,"decayed_at":null,"tle_current":{"epoch":"2026-05-24T20:50:15.455616Z","epoch_age_seconds":80330,"freshness":"FRESH","line1":"1 64882U 25155G   26144.86823444  .00007328  00000+0  26230-3 0  9997","line2":"2 64882  97.4565 113.3282 0005166 257.3947 102.6715 15.29065720 77194","mean_motion":15.2906572,"eccentricity":0.0005166,"inclination_deg":97.4565,"raan_deg":113.3282,"arg_perigee_deg":257.3947,"mean_anomaly_deg":102.6715,"bstar":0.0002623,"rev_number":7719,"period_min":94.175154224241,"perigee_km":475.06172612758,"apogee_km":482.14611084456,"semimajor_km":6856.7409184861,"source":"CELESTRAK","updated_at":"2026-05-25T13:38:04.871368Z"}}}